Weather History for KCMY - February, 2014

Change the Weather History Date:

Monday, February 17, 2014

  Actual Average Record
Temperature  
Mean Temperature 20 °F -  
Max Temperature 25 °F 30 °F 57 °F (1981)
Min Temperature 16 °F 9 °F -29 °F (1958)
Degree Days  
Heating Degree Days 44    
Moisture  
Dew Point 18 °F    
Average Humidity 84    
Maximum Humidity 99    
Minimum Humidity 70    
Precipitation  
Precipitation 0.00 in - - ()
Sea Level Pressure  
Sea Level Pressure 29.86 in    
Wind  
Wind Speed 6 mph (SSE)    
Max Wind Speed 13 mph    
Max Gust Speed 20 mph    
Visibility 6 miles    
Events Snow    
Averages and records for this station are not official NWS values.
T = Trace of Precipitation, MM = Missing Value Source: NWS Daily Summary

Daily Weather History Graph

Daily Weather History Graph

Search for Another Location

Airport or City:

Trip Planner

Search our weather history database for the weather conditions in past years. The results will help you decide how hot, cold, wet, or windy it might be!

Date:

Astronomy

Feb. 17, 2014 Rise Set
Actual Time 6:59 AM CST 5:35 PM CST
Civil Twilight 6:29 AM CST 6:05 PM CST
Nautical Twilight 5:55 AM CST 6:38 PM CST
Astronomical Twilight 5:22 AM CST 7:12 PM CST
Moon 8:38 PM CST (2/17) 7:53 AM CST (2/17)
Length of Visible Light 11h 35m
Length of Day
10h 36m
Waning Gibbous, 93% of the Moon is Illuminated
Feb 17
Waning Gibbous
Feb 22
Last Quarter
Mar 1
New
Mar 8
First Quarter
Mar 16
Full

Hourly Weather History & Observations

Time (CST) Temp. Windchill Dew Point Humidity Pressure Visibility Wind Dir Wind Speed Gust Speed Precip Events Conditions
12:15 AM 17.6 °F 8.2 °F 9.3 °F 70% 30.16 in 10.0 mi SE 6.9 mph - N/A   Overcast
12:35 AM 17.6 °F 9.3 °F 9.9 °F 72% 30.16 in 7.0 mi SE 5.8 mph - N/A Snow Light Snow
12:55 AM 17.4 °F 9.1 °F 11.5 °F 78% 30.16 in 2.5 mi SE 5.8 mph - N/A Snow Light Snow
1:15 AM 17.1 °F 8.7 °F 13.1 °F 84% 30.15 in 0.8 mi ESE 5.8 mph - N/A Snow Light Snow
1:35 AM 16.7 °F 8.3 °F 13.6 °F 88% 30.14 in 2.5 mi ESE 5.8 mph - N/A Snow Light Snow
1:55 AM 17.2 °F 8.9 °F 14.0 °F 87% 30.13 in 5.0 mi ESE 5.8 mph - N/A Snow Light Snow
2:15 AM 18.0 °F 11.1 °F 13.3 °F 82% 30.15 in 10.0 mi ESE 4.6 mph - N/A   Overcast
2:35 AM 18.3 °F 8.2 °F 13.1 °F 80% 30.12 in 10.0 mi ESE 8.1 mph 16.1 mph N/A   Overcast
2:55 AM 18.5 °F 7.5 °F 13.1 °F 79% 30.12 in 10.0 mi SE 9.2 mph - N/A   Overcast
3:15 AM 18.7 °F 7.8 °F 13.5 °F 80% 30.09 in 10.0 mi ESE 9.2 mph - N/A   Overcast
3:35 AM 19.0 °F 10.0 °F 13.8 °F 80% 30.07 in 10.0 mi SE 6.9 mph - N/A   Overcast
3:55 AM 19.4 °F 7.9 °F 14.0 °F 80% 30.04 in 10.0 mi ESE 10.4 mph - N/A   Overcast
4:15 AM 19.4 °F 14.3 °F 14.5 °F 81% 30.05 in 10.0 mi SSE 3.5 mph - N/A   Overcast
4:35 AM 19.9 °F 9.3 °F 14.9 °F 81% 30.02 in 10.0 mi ESE 9.2 mph - N/A   Overcast
4:55 AM 20.3 °F 9.8 °F 15.1 °F 80% 30.01 in 10.0 mi SE 9.2 mph - N/A   Overcast
5:15 AM 20.7 °F 11.9 °F 15.4 °F 80% 29.99 in 10.0 mi SE 6.9 mph - N/A   Overcast
5:35 AM 21.4 °F 11.9 °F 15.4 °F 78% 29.97 in 10.0 mi SE 8.1 mph 19.6 mph N/A   Overcast
5:55 AM 21.9 °F 11.0 °F 15.4 °F 76% 29.95 in 10.0 mi SE 10.4 mph - N/A   Overcast
6:15 AM 22.1 °F 13.7 °F 15.6 °F 76% 29.93 in 10.0 mi SE 6.9 mph - N/A   Overcast
6:35 AM 22.6 °F 11.3 °F 15.6 °F 74% 29.90 in 10.0 mi SE 11.5 mph 19.6 mph N/A   Overcast
6:55 AM 23.0 °F 13.9 °F 15.6 °F 73% 29.90 in 10.0 mi SE 8.1 mph - N/A   Overcast
7:15 AM 23.0 °F 13.1 °F 15.6 °F 73% 29.88 in 10.0 mi SE 9.2 mph - N/A   Overcast
7:35 AM 23.7 °F 12.1 °F 15.3 °F 70% 29.88 in 10.0 mi SE 12.7 mph 16.1 mph N/A   Overcast
7:55 AM 23.7 °F 12.6 °F 15.6 °F 71% 29.87 in 10.0 mi SE 11.5 mph 18.4 mph N/A   Overcast
8:15 AM 23.9 °F 15.0 °F 15.4 °F 70% 29.88 in 10.0 mi SSE 8.1 mph - N/A   Overcast
8:35 AM 23.4 °F 13.5 °F 17.1 °F 77% 29.88 in 0.5 mi SSE 9.2 mph 16.1 mph N/A Snow Light Snow
8:55 AM 22.1 °F 15.9 °F 19.4 °F 89% 29.88 in 0.5 mi ESE 4.6 mph - N/A Snow Light Snow
9:15 AM 22.3 °F 16.1 °F 19.9 °F 91% 29.86 in 0.8 mi ESE 4.6 mph - N/A Snow Light Snow
9:35 AM 22.5 °F 14.1 °F 19.6 °F 89% 29.84 in 0.8 mi ESE 6.9 mph 17.3 mph N/A Snow Light Snow
9:55 AM 22.6 °F 10.7 °F 19.2 °F 87% 29.84 in 1.2 mi SE 12.7 mph 19.6 mph N/A Snow Light Snow
10:15 AM 23.2 °F 13.3 °F 18.9 °F 84% 29.82 in 2.0 mi SE 9.2 mph 18.4 mph N/A Snow Light Snow
10:35 AM 23.4 °F 12.8 °F 18.9 °F 83% 29.82 in 2.5 mi SE 10.4 mph - N/A Snow Light Snow
10:55 AM 23.2 °F 15.0 °F 20.3 °F 89% 29.82 in 0.5 mi SSE 6.9 mph - N/A Snow Snow
11:15 AM 23.5 °F 15.4 °F 20.7 °F 89% 29.82 in 1.0 mi South 6.9 mph - N/A Snow Light Snow
11:35 AM 23.9 °F 15.8 °F 20.3 °F 86% 29.80 in 2.0 mi SSE 6.9 mph - N/A Snow Light Snow
11:50 AM 24.3 °F 16.3 °F 20.3 °F 85% 29.78 in 4.0 mi SSE 6.9 mph - N/A Snow Light Snow
12:15 PM 24.6 °F 18.8 °F 21.2 °F 87% 29.77 in 0.5 mi SE 4.6 mph - N/A Snow Light Snow
12:35 PM 25.2 °F 16.5 °F 21.4 °F 86% 29.75 in 1.5 mi SSE 8.1 mph - N/A Snow Light Snow
12:55 PM 25.5 °F 17.8 °F 21.0 °F 83% 29.75 in 1.8 mi South 6.9 mph - N/A Snow Light Snow
1:15 PM 25.7 °F 20.1 °F 20.7 °F 81% 29.74 in 3.0 mi SSE 4.6 mph - N/A Snow Light Snow
1:30 PM 25.5 °F 16.9 °F 20.3 °F 81% 29.74 in 7.0 mi South 8.1 mph - N/A   Mostly Cloudy
1:55 PM 25.7 °F 16.4 °F 19.8 °F 78% 29.72 in 10.0 mi South 9.2 mph - N/A   Mostly Cloudy
2:15 PM 25.7 °F 18.0 °F 19.9 °F 79% 29.71 in 5.0 mi South 6.9 mph - N/A Snow Light Snow
2:35 PM 25.5 °F 18.7 °F 20.1 °F 80% 29.70 in 5.0 mi SSE 5.8 mph - N/A   Haze
2:55 PM 25.5 °F 19.9 °F 20.3 °F 81% 29.70 in 3.0 mi SSE 4.6 mph - N/A Snow Light Snow
3:15 PM 25.7 °F 21.5 °F 20.3 °F 80% 29.69 in 4.0 mi SSE 3.5 mph - N/A Snow Light Snow
3:35 PM 25.5 °F 19.9 °F 20.5 °F 81% 29.69 in 2.0 mi South 4.6 mph - N/A Snow Light Snow
3:55 PM 25.5 °F 19.9 °F 21.2 °F 84% 29.70 in 1.8 mi SSE 4.6 mph - N/A Snow Light Snow
4:15 PM 25.7 °F - 21.6 °F 84% 29.70 in 1.5 mi Calm Calm - N/A Snow Light Snow
4:35 PM 25.5 °F 21.3 °F 21.7 °F 86% 29.70 in 3.0 mi South 3.5 mph - N/A Snow Light Snow
4:55 PM 25.7 °F - 22.1 °F 86% 29.70 in 2.0 mi Calm Calm - N/A Snow Light Snow
5:15 PM 25.3 °F - 22.5 °F 89% 29.71 in 1.8 mi Calm Calm - N/A Snow Light Snow
5:35 PM 24.4 °F - 22.1 °F 91% 29.71 in 1.8 mi Calm Calm - N/A Snow Light Snow
5:55 PM 23.2 °F - 22.3 °F 96% 29.71 in 2.5 mi Calm Calm - N/A Snow Light Snow
6:15 PM 22.1 °F - 21.9 °F 99% 29.72 in 3.0 mi Calm Calm - N/A Snow Light Snow
6:35 PM 20.5 °F - 19.9 °F 98% 29.73 in 4.0 mi Calm Calm - N/A   Scattered Clouds
6:55 PM 21.6 °F 16.8 °F 21.4 °F 99% 29.74 in 4.0 mi West 3.5 mph - N/A   Overcast
7:15 PM 21.7 °F - 21.2 °F 98% 29.73 in 4.0 mi Calm Calm - N/A   Overcast
7:35 PM 22.1 °F 17.4 °F 21.7 °F 99% 29.75 in 5.0 mi West 3.5 mph - N/A   Overcast
7:55 PM 22.1 °F 14.7 °F 21.7 °F 99% 29.75 in 5.0 mi West 5.8 mph - N/A   Overcast
8:15 PM 23.9 °F 15.8 °F 22.3 °F 94% 29.76 in 7.0 mi WNW 6.9 mph - N/A   Overcast
8:35 PM 24.6 °F 14.4 °F 21.2 °F 87% 29.77 in 7.0 mi WNW 10.4 mph - N/A   Overcast
8:55 PM 24.8 °F 16.9 °F 20.3 °F 83% 29.77 in 10.0 mi NW 6.9 mph - N/A   Overcast
9:15 PM 24.8 °F 16.1 °F 20.1 °F 82% 29.78 in 10.0 mi NW 8.1 mph - N/A   Overcast
9:35 PM 24.6 °F 15.8 °F 20.3 °F 84% 29.80 in 7.0 mi West 8.1 mph - N/A   Overcast
9:55 PM 24.6 °F 20.3 °F 20.1 °F 83% 29.80 in 7.0 mi WNW 3.5 mph - N/A   Overcast
10:15 PM 24.8 °F 20.5 °F 20.3 °F 83% 29.82 in 7.0 mi WNW 3.5 mph - N/A   Overcast
10:35 PM 24.4 °F - 20.3 °F 84% 29.82 in 7.0 mi Calm Calm - N/A   Overcast
10:55 PM 24.3 °F 19.9 °F 20.5 °F 85% 29.82 in 7.0 mi West 3.5 mph - N/A   Overcast
11:15 PM 24.6 °F - 20.8 °F 86% 29.82 in 7.0 mi Calm Calm - N/A   Overcast
11:35 PM 24.8 °F 20.5 °F 20.8 °F 85% 29.82 in 7.0 mi West 3.5 mph - N/A   Overcast
11:55 PM 24.8 °F - 21.0 °F 86% 29.82 in 7.0 mi Calm Calm - N/A   Overcast